Weather History for Allentown, PA

Change the Weather History Date:

Monday, January 20, 2014

  Actual Average (KABE) Record (KABE)
Temperature  
Mean Temperature 34 °F 28 °F  
Max Temperature 39 °F 36 °F 56 °F (1951)
Min Temperature 28 °F 19 °F -6 °F (1994)
Degree Days  
Heating Degree Days 32 38  
Month to date heating degree days 748  
Since 1 July heating degree days 2943  
Cooling Degree Days 0 0  
Month to date cooling degree days 0  
Year to date cooling degree days 0  
Moisture  
Dew Point 22 °F    
Average Humidity 60    
Maximum Humidity 70    
Minimum Humidity 48    
Precipitation  
Precipitation 0.00 in 0.10 in 1.31 in (1936)
Month to date precipitation 1.94  
Year to date precipitation 1.94  
Snow  
Snow 0.00 in 0.30 in 9.00 in (1978)
Month to date snowfall 6.2  
Since 1 July snowfall 12.1  
Snow Depth -    
Sea Level Pressure  
Sea Level Pressure 29.71 in    
Wind  
Wind Speed 5 mph (SW)    
Max Wind Speed 13 mph    
Max Gust Speed 21 mph    
Visibility 10 miles    
Events      
T = Trace of Precipitation, MM = Missing Value Source: NWS Daily Summary

Daily Weather History Graph

Daily Weather History Graph

Search for Another Location

Airport:

Trip Planner

Search our weather history database for the weather conditions in past years. The results will help you decide how hot, cold, wet, or windy it might be!

Date:

Astronomy

Jan. 20, 2014 Rise Set
Actual Time 7:20 AM EST 5:05 PM EST
Civil Twilight 6:51 AM EST 5:35 PM EST
Nautical Twilight 6:17 AM EST 6:08 PM EST
Astronomical Twilight 5:45 AM EST 6:41 PM EST
Moon 9:39 PM EST (1/20) 9:18 AM EST (1/20)
Length of Visible Light 10h 43m
Length of Day
9h 44m
Waning Gibbous, 83% of the Moon is Illuminated
Jan 20
Waning Gibbous
Jan 24
Last Quarter
Jan 30
New
Feb 6
First Quarter
Feb 14
Full

Hourly Weather History & Observations

Time (EST) Temp. Windchill Dew Point Humidity Pressure Visibility Wind Dir Wind Speed Gust Speed Precip Events Conditions
12:15 AM 32.0 °F 28.7 °F 17.6 °F 55% 29.68 in 10.0 mi WSW 3.5 mph - N/A   Clear
12:35 AM 32.0 °F 28.7 °F 17.6 °F 55% 29.67 in 10.0 mi SW 3.5 mph - N/A   Clear
12:55 AM 32.0 °F 28.7 °F 17.6 °F 55% 29.67 in 10.0 mi SW 3.5 mph - N/A   Clear
1:15 AM 30.2 °F 26.7 °F 17.6 °F 60% 29.66 in 10.0 mi SSW 3.5 mph - N/A   Clear
1:35 AM 32.0 °F 28.7 °F 17.6 °F 55% 29.66 in 10.0 mi SSW 3.5 mph - N/A   Clear
1:55 AM 30.2 °F - 17.6 °F 60% 29.66 in 10.0 mi Calm Calm - N/A   Clear
2:15 AM 30.2 °F 25.4 °F 17.6 °F 60% 29.66 in 10.0 mi SSW 4.6 mph - N/A   Clear
2:35 AM 28.4 °F 23.3 °F 17.6 °F 64% 29.66 in 10.0 mi SSW 4.6 mph - N/A   Clear
2:55 AM 28.4 °F 22.2 °F 17.6 °F 64% 29.66 in 10.0 mi SW 5.8 mph - N/A   Clear
3:15 AM 30.2 °F 25.4 °F 17.6 °F 60% 29.66 in 10.0 mi WSW 4.6 mph - N/A   Clear
3:35 AM 28.4 °F 24.6 °F 17.6 °F 64% 29.67 in 10.0 mi WSW 3.5 mph - N/A   Clear
3:55 AM 30.2 °F 26.7 °F 17.6 °F 60% 29.66 in 10.0 mi SW 3.5 mph - N/A   Mostly Cloudy
4:15 AM 30.2 °F 26.7 °F 19.4 °F 64% 29.65 in 10.0 mi SW 3.5 mph - N/A   Overcast
4:35 AM 30.2 °F 25.4 °F 19.4 °F 64% 29.65 in 10.0 mi South 4.6 mph - N/A   Overcast
4:55 AM 30.2 °F 26.7 °F 19.4 °F 64% 29.64 in 10.0 mi South 3.5 mph - N/A   Overcast
5:15 AM 30.2 °F 25.4 °F 19.4 °F 64% 29.64 in 10.0 mi SW 4.6 mph - N/A   Overcast
5:35 AM 30.2 °F 25.4 °F 19.4 °F 64% 29.64 in 10.0 mi SSW 4.6 mph - N/A   Overcast
5:55 AM 30.2 °F 26.7 °F 19.4 °F 64% 29.64 in 10.0 mi South 3.5 mph - N/A   Scattered Clouds
6:15 AM 30.2 °F 25.4 °F 19.4 °F 64% 29.64 in 10.0 mi South 4.6 mph - N/A   Clear
6:35 AM 30.2 °F 26.7 °F 19.4 °F 64% 29.65 in 10.0 mi SSW 3.5 mph - N/A   Clear
6:55 AM 32.0 °F 26.4 °F 19.4 °F 60% 29.65 in 10.0 mi SSE 5.8 mph - N/A   Mostly Cloudy
7:15 AM 32.0 °F 27.5 °F 21.2 °F 64% 29.65 in 10.0 mi SSW 4.6 mph - N/A   Overcast
7:35 AM 32.0 °F 28.7 °F 21.2 °F 64% 29.66 in 10.0 mi SSW 3.5 mph - N/A   Overcast
7:55 AM 32.0 °F 27.5 °F 21.2 °F 64% 29.66 in 10.0 mi South 4.6 mph - N/A   Overcast
8:15 AM 32.0 °F 27.5 °F 21.2 °F 64% 29.65 in 10.0 mi South 4.6 mph - N/A   Overcast
8:35 AM 32.0 °F 26.4 °F 21.2 °F 64% 29.63 in 10.0 mi South 5.8 mph - N/A   Overcast
8:55 AM 32.0 °F 28.7 °F 21.2 °F 64% 29.66 in 10.0 mi WNW 3.5 mph - N/A   Overcast
9:15 AM 32.0 °F - 21.2 °F 64% 29.66 in 10.0 mi Calm Calm - N/A   Overcast
9:35 AM 33.8 °F 30.8 °F 21.2 °F 60% 29.68 in 10.0 mi SSW 3.5 mph - N/A   Overcast
9:55 AM 33.8 °F 30.8 °F 21.2 °F 60% 29.66 in 10.0 mi SSW 3.5 mph - N/A   Overcast
10:15 AM 33.8 °F 30.8 °F 21.2 °F 60% 29.66 in 10.0 mi SSW 3.5 mph - N/A   Overcast
10:35 AM 33.8 °F 29.6 °F 23.0 °F 65% 29.66 in 10.0 mi SW 4.6 mph - N/A   Overcast
10:55 AM 35.6 °F 32.8 °F 21.2 °F 56% 29.66 in 10.0 mi SSW 3.5 mph - N/A   Overcast
11:15 AM 35.6 °F 31.7 °F 21.2 °F 56% 29.65 in 10.0 mi SSW 4.6 mph - N/A   Overcast
11:35 AM 35.6 °F 31.7 °F 23.0 °F 60% 29.64 in 10.0 mi SSW 4.6 mph - N/A   Overcast
11:55 AM 37.4 °F 34.9 °F 21.2 °F 52% 29.64 in 10.0 mi WSW 3.5 mph - N/A   Overcast
12:15 PM 37.4 °F 32.8 °F 21.2 °F 52% 29.62 in 10.0 mi WSW 5.8 mph - N/A   Overcast
12:35 PM 37.4 °F 34.9 °F 21.2 °F 52% 29.62 in 10.0 mi WSW 3.5 mph - N/A   Overcast
12:55 PM 37.4 °F 32.8 °F 23.0 °F 56% 29.64 in 10.0 mi WSW 5.8 mph - N/A   Overcast
1:15 PM 37.4 °F 32.1 °F 21.2 °F 52% 29.64 in 10.0 mi SW 6.9 mph - N/A   Overcast
1:35 PM 37.4 °F 32.8 °F 23.0 °F 56% 29.64 in 10.0 mi SW 5.8 mph - N/A   Overcast
1:55 PM 37.4 °F 32.8 °F 23.0 °F 56% 29.64 in 10.0 mi WSW 5.8 mph - N/A   Overcast
2:15 PM 37.4 °F 32.8 °F 23.0 °F 56% 29.65 in 10.0 mi SW 5.8 mph - N/A   Overcast
2:35 PM 37.4 °F 31.4 °F 23.0 °F 56% 29.66 in 10.0 mi SW 8.1 mph - N/A   Overcast
2:55 PM 37.4 °F 30.3 °F 23.0 °F 56% 29.68 in 10.0 mi SW 10.4 mph - N/A   Overcast
3:15 PM 37.4 °F 30.8 °F 23.0 °F 56% 29.69 in 10.0 mi SW 9.2 mph - N/A   Overcast
3:35 PM 37.4 °F 31.4 °F 23.0 °F 56% 29.70 in 10.0 mi WSW 8.1 mph - N/A   Overcast
3:55 PM 39.2 °F 32.0 °F 23.0 °F 52% 29.71 in 10.0 mi WSW 11.5 mph 18.4 mph N/A   Overcast
4:15 PM 37.4 °F 29.3 °F 23.0 °F 56% 29.72 in 10.0 mi SW 12.7 mph - N/A   Overcast
4:35 PM 37.4 °F 30.8 °F 24.8 °F 60% 29.73 in 10.0 mi SW 9.2 mph - N/A   Overcast
4:55 PM 37.4 °F 31.4 °F 26.6 °F 65% 29.73 in 10.0 mi SW 8.1 mph - N/A   Mostly Cloudy
5:15 PM 39.2 °F 32.5 °F 26.6 °F 61% 29.75 in 10.0 mi WSW 10.4 mph 16.1 mph N/A   Scattered Clouds
5:35 PM 39.2 °F 33.6 °F 26.6 °F 61% 29.76 in 10.0 mi West 8.1 mph - N/A   Mostly Cloudy
5:55 PM 37.4 °F 32.8 °F 26.6 °F 65% 29.77 in 10.0 mi WSW 5.8 mph - N/A   Overcast
6:15 PM 37.4 °F 30.3 °F 26.6 °F 65% 29.78 in 10.0 mi West 10.4 mph 16.1 mph N/A   Overcast
6:35 PM 37.4 °F 30.8 °F 28.4 °F 70% 29.79 in 10.0 mi West 9.2 mph - N/A   Overcast
6:55 PM 37.4 °F 31.4 °F 28.4 °F 70% 29.80 in 10.0 mi West 8.1 mph - N/A   Overcast
7:15 PM 37.4 °F 32.8 °F 28.4 °F 70% 29.81 in 10.0 mi West 5.8 mph - N/A   Overcast
7:35 PM 37.4 °F 30.8 °F 28.4 °F 70% 29.82 in 10.0 mi West 9.2 mph - N/A   Overcast
7:55 PM 37.4 °F 32.8 °F 28.4 °F 70% 29.83 in 10.0 mi WSW 5.8 mph - N/A   Mostly Cloudy
8:15 PM 37.4 °F 32.1 °F 26.6 °F 65% 29.84 in 10.0 mi West 6.9 mph - N/A   Overcast
8:35 PM 35.6 °F 31.7 °F 23.0 °F 60% 29.84 in 10.0 mi West 4.6 mph - N/A   Scattered Clouds
8:55 PM 37.4 °F 30.8 °F 21.2 °F 52% 29.84 in 10.0 mi WNW 9.2 mph - N/A   Clear
9:15 PM 35.6 °F 28.0 °F 19.4 °F 52% 29.85 in 10.0 mi WNW 10.4 mph 20.7 mph N/A   Clear
9:35 PM 35.6 °F 28.6 °F 19.4 °F 52% 29.85 in 10.0 mi WNW 9.2 mph - N/A   Clear
9:55 PM 35.6 °F 30.7 °F 17.6 °F 48% 29.86 in 10.0 mi NW 5.8 mph - N/A   Clear
10:15 PM 33.8 °F 27.7 °F 23.0 °F 65% 29.88 in 10.0 mi North 6.9 mph - N/A   Clear
10:35 PM 32.0 °F 26.4 °F 23.0 °F 69% 29.89 in 10.0 mi North 5.8 mph - N/A   Scattered Clouds
10:55 PM 32.0 °F 25.6 °F 21.2 °F 64% 29.90 in 10.0 mi NNE 6.9 mph - N/A   Scattered Clouds
11:15 PM 32.0 °F 25.6 °F 21.2 °F 64% 29.90 in 10.0 mi North 6.9 mph - N/A   Mostly Cloudy
11:35 PM 32.0 °F 24.2 °F 19.4 °F 60% 29.90 in 10.0 mi North 9.2 mph - N/A   Scattered Clouds
11:55 PM 32.0 °F 25.6 °F 19.4 °F 60% 29.91 in 10.0 mi North 6.9 mph - N/A   Clear